Preview of NWS' New Version of Forecast
This preview is not operational and should not be used for support decisions.

Regional Weather Roundup (RWR)

Issued by National Weather Service (NWS)

                            
000
ASUS43 KTOP 171459
RWRKS 

WEATHER ROUNDUP FOR KANSAS
NATIONAL WEATHER SERVICE GOODLAND KS
1000 AM CDT SAT AUG 17 2019

NOTE:  "FAIR" INDICATES FEW OR NO CLOUDS BELOW 12,000 FEET WITH NO
SIGNIFICANT WEATHER AND/OR OBSTRUCTIONS TO VISIBILITY.

KSZ001>006-013>018-027>032-041>047-171600-
NORTHWEST KANSAS
  
CITY           SKY/WX    TMP DP  RH WIND       PRES   REMARKS
GOODLAND       SUNNY     75  62  64 SW14G22   29.87S                  
HAYS           SUNNY     79  66  64 SE14G22   29.83F                  
HILL CITY      SUNNY     77  64  64 E7        29.85S                  
RUSSELL        SUNNY     78  65  63 S13       29.82S                  
$$

KSZ061>065-074>080-084>089-171600-
SOUTHWEST KANSAS
  
CITY           SKY/WX    TMP DP  RH WIND       PRES   REMARKS
DODGE CITY     SUNNY     82  62  50 SE21G29   29.85F                  
GARDEN CITY    SUNNY     79  60  52 S20G31    29.84F                  
GREAT BEND     SUNNY     77  67  71 SE14G25   29.83R                  
LIBERAL        SUNNY     80  62  54 S6        29.86S                  
$$

KSZ066>073-081>083-090>101-171600-
SOUTHEAST KANSAS
  
CITY           SKY/WX    TMP DP  RH WIND       PRES   REMARKS
CHANUTE        LGT RAIN  73  70  90 S9        29.91F                  
COFFEYVILLE    TSTM      69  69 100 S8        29.97F FOG              
HUTCHINSON     MOSUNNY   76  66  71 SE18G29   29.81F                  
MEDICINE LODGE   N/A     77  66  68 SE13G38   29.83S                  
NEWTON         SUNNY     72  67  84 SE14G22   29.85F                  
PARSONS        LGT RAIN  70  69  97 S8G31     29.95F                  
WICHITA INTL   PTSUNNY   78  67  68 SE17G29   29.84F                  
WICHITA JABRA  LGT RAIN  75  69  81 SE20G29   29.81F                  
WICHITA MCCONL MOSUNNY   78  66  67 E18       29.86F                  
WINFIELD       MOSUNNY   73  65  75 SE12G23   29.91F                  
$$

KSZ007>012-019>026-033>040-048>060-102>105-171600-
NORTHEAST KANSAS
  
CITY           SKY/WX    TMP DP  RH WIND       PRES   REMARKS
CONCORDIA      SUNNY     76  69  79 MISG      29.82S                  
EMPORIA        SUNNY     73  66  78 S15G23    29.87R                  
LAWRENCE       SUNNY     74  66  76 SE10      29.87R                  
MANHATTAN      SUNNY     75  66  73 S6        29.84R                  
OLATHE IND       N/A     71  65  81 SE15      29.88R                  
OLATHE EXE     SUNNY     69  66  90 S10       29.88R                  
SALINA         MOSUNNY   76  66  71 SE16      29.83R                  
TOPEKA BILLARD SUNNY     73  65  75 SE7       29.86R                  
TOPEKA FORBES  SUNNY     73  66  78 SE10      29.86R                  
$$